Location: Newark
(43.9494°N, 6.8108°E)
Time: 11:54:43
(UTC+00:00)

Transit 2A Rocket - All Passes

Search period start: 22 October 2019 00:00
Search period end: 01 November 2019 00:00
Orbit: 594 x 909 km, 66.7° (Epoch: 21 October)

Date Brightness Start Highest point End Pass type
(mag) Time Alt. Az. Time Alt. Az. Time Alt. Az.
22 Oct - 03:45:46 10° SSW 03:50:51 64° ESE 03:55:31 10° NE visible
22 Oct - 05:30:05 10° W 05:33:45 20° NW 05:37:14 10° N daylight
22 Oct - 10:47:39 10° NNE 10:48:47 11° NE 10:49:55 10° NE daylight
22 Oct - 12:27:55 10° NNW 12:32:13 65° NE 12:36:33 10° SE daylight
22 Oct - 14:12:11 10° W 14:14:12 13° WSW 14:16:13 10° SW daylight
23 Oct - 03:03:45 10° S 03:08:25 36° ESE 03:12:46 10° NE visible
23 Oct - 04:46:33 10° WSW 04:50:59 32° NW 04:55:09 10° NNE visible
23 Oct - 11:45:35 10° NNW 11:49:36 36° NE 11:53:38 10° ESE daylight
23 Oct - 13:28:27 10° WNW 13:31:56 24° WSW 13:35:28 10° SSW daylight
24 Oct - 02:22:18 10° SSE 02:26:04 21° ESE 02:29:38 10° ENE visible
24 Oct - 04:03:25 10° SW 04:08:20 52° NW 04:12:53 10° NNE visible
24 Oct - 05:51:15 10° NW 05:51:53 10° NW 05:52:32 10° NNW daylight
24 Oct - 11:03:26 10° N 11:06:52 22° NE 11:10:17 10° E daylight
24 Oct - 12:45:28 10° NW 12:49:35 45° WSW 12:53:47 10° S daylight
25 Oct - 01:42:07 10° SE 01:43:49 12° ESE 01:45:28 10° E visible
25 Oct - 03:20:41 10° SSW 03:25:47 89° NW 03:30:27 10° NNE visible
25 Oct - 05:06:03 10° WNW 05:08:55 15° NW 05:11:41 10° N visible
25 Oct - 10:21:37 10° N 10:24:01 14° NE 10:26:23 10° ENE daylight
25 Oct - 12:02:49 10° NNW 12:07:08 85° WSW 12:11:32 10° SSE daylight
26 Oct - 02:38:21 10° SSW 02:43:18 52° ESE 02:47:52 10° NE visible
26 Oct - 04:22:09 10° W 04:26:05 23° NW 04:29:47 10° N visible
26 Oct - 11:20:22 10° NNW 11:24:36 52° NE 11:28:53 10° SE daylight
26 Oct - 13:04:00 10° WNW 13:06:41 16° WSW 13:09:27 10° SSW daylight
27 Oct - 01:56:30 10° S 02:00:53 30° ESE 02:05:00 10° NE visible
27 Oct - 03:38:45 10° WSW 03:43:21 37° NW 03:47:38 10° NNE visible
27 Oct - 10:38:06 10° NNW 10:41:56 30° NE 10:45:49 10° ESE daylight
27 Oct - 12:20:38 10° NW 12:24:25 30° WSW 12:28:15 10° S daylight
28 Oct - 01:15:21 10° SSE 01:18:34 17° ESE 01:21:39 10° ENE visible
28 Oct - 02:55:46 10° SW 03:00:44 62° WNW 03:05:20 10° NNE visible
28 Oct - 04:42:27 10° WNW 04:44:08 12° NW 04:45:47 10° NNW visible
28 Oct - 09:56:02 10° N 09:59:10 19° NE 10:02:18 10° E daylight
28 Oct - 11:37:48 10° NW 11:42:01 56° WSW 11:46:21 10° SSE daylight
29 Oct - 02:13:09 10° SSW 02:18:12 76° ESE 02:22:50 10° NE visible
29 Oct - 03:57:58 10° W 04:01:12 18° NW 04:04:19 10° N visible
29 Oct - 09:14:25 10° NNE 09:16:16 12° NE 09:18:07 10° ENE daylight
29 Oct - 10:55:13 10° NNW 10:59:32 78° ENE 11:03:58 10° SE daylight
29 Oct - 12:40:28 10° W 12:41:26 11° WSW 12:42:24 10° WSW daylight
30 Oct - 01:30:59 10° S 01:35:45 43° ESE 01:40:10 10° NE visible
30 Oct - 03:14:15 10° WSW 03:18:24 27° NW 03:22:19 10° N visible
30 Oct - 10:12:50 10° NNW 10:16:58 43° NE 10:21:09 10° SE daylight
30 Oct - 11:56:00 10° WNW 11:59:11 20° WSW 12:02:27 10° SSW daylight
31 Oct - 00:49:20 10° SSE 00:53:22 24° ESE 00:57:10 10° ENE night (unlit)
31 Oct - 02:31:00 10° SW 02:35:43 44° NW 02:40:07 10° NNE visible
31 Oct - 09:30:38 10° N 09:34:16 26° NE 09:37:56 10° ESE daylight
31 Oct - 11:12:53 10° NW 11:16:52 37° WSW 11:20:57 10° S daylight
